Location: Nitra
(0.0000°N, 18.0833°E)
Time: 06:03:37
(UTC+01:00)

deb Ariane - Pass Details

Date: 24 January 2021
Orbit: 301 x 22545 km, 6.8° (Epoch: 04 March)

Event Time Altitude Azimuth Distance (km) Brightness Sun altitude
Rises 18:31:37 0° 262° (W) 2,008 8.3 -7.5°
Reaches altitude 10° 18:32:57 10° 261° (W) 1,316 6.9 -7.8°
Maximum altitude 18:35:21 85° 170° (S) 526 3.2 -8.4°
Enters shadow 18:41:53 10° 84° (E) 3,502 6.7 -9.9°
